Location: Great Falls
(47.5000°N, 111.3000°W)
Time: 02:40:03
(UTC-06:00)

OTV 5 (USA 277) - Visible Passes

Search period start: 22 October 2018 00:00
Search period end: 01 November 2018 00:00
Orbit: 387 x 394 km, 54.5° (Epoch: 08 September)

Date Brightness Start Highest point End Pass type
(mag) Time Alt. Az. Time Alt. Az. Time Alt. Az.
23 Oct ? 20:28:04 10° SSW 20:28:34 13° SSW 20:28:34 13° SSW visible
24 Oct ? 19:32:39 10° S 19:34:44 16° SE 19:34:47 16° SE visible
24 Oct ? 21:07:07 10° WSW 21:07:11 11° WSW 21:07:11 11° WSW visible
25 Oct ? 20:10:46 10° SW 20:13:17 46° S 20:13:17 46° S visible
26 Oct ? 19:14:48 10° SSW 19:17:36 28° SE 19:19:15 18° E visible
26 Oct ? 20:50:18 10° W 20:51:39 22° W 20:51:39 22° W visible
27 Oct ? 19:53:43 10° WSW 19:56:55 83° NNW 19:57:31 55° NE visible
28 Oct ? 18:57:25 10° SW 19:00:31 50° SE 19:03:18 12° ENE visible
28 Oct ? 20:33:35 10° W 20:35:41 28° NW 20:35:41 28° NW visible
29 Oct ? 19:36:51 10° WSW 19:39:59 52° NNW 19:41:25 27° NE visible
29 Oct ? 21:13:45 10° WNW 21:13:47 10° WNW 21:13:47 10° WNW visible
30 Oct ? 18:40:18 10° SW 18:43:30 87° SSE 18:46:43 10° ENE visible
30 Oct ? 20:16:55 10° WNW 20:19:27 27° NNW 20:19:27 27° NNW visible
31 Oct ? 19:20:06 10° W 19:23:05 36° NNW 19:25:05 18° NE visible
31 Oct ? 20:57:01 10° NW 20:57:28 12° NW 20:57:28 12° NW visible
